This is the latest recevied weather packets stored in our database for station/object KC4KQE. If no packets are shown the sender has not sent any weather packets the latest 10 day(s).
| Time | Temp. | Humidity | Pressure | Rain* | Wind** | Luminosity | Snow |
|---|---|---|---|---|---|---|---|
| 1777826057 | 28.89° C | 24% | 1013.1 hPa | 0 mm | - | 443 W/m² | - |
| 1777825757 | 28.33° C | 24% | 1012.9 hPa | 0 mm | - | 598 W/m² | - |
| 1777825457 | 28.33° C | 25% | 1012.9 hPa | 0 mm | - | 410 W/m² | - |
| 1777825157 | 28.89° C | 25% | 1012.9 hPa | 0 mm | - | 366 W/m² | - |
| 1777824857 | 28.33° C | 25% | 1013 hPa | 0 mm | - | 418 W/m² | - |
| 1777824557 | 28.33° C | 25% | 1013.1 hPa | 0 mm | - | 355 W/m² | - |
| 1777824257 | 27.78° C | 25% | 1013 hPa | 0 mm | - | 311 W/m² | - |
| 1777823957 | 27.78° C | 25% | 1013 hPa | 0 mm | - | 297 W/m² | - |
| 1777823657 | 27.78° C | 25% | 1012.9 hPa | 0 mm | - | 267 W/m² | - |
| 1777823358 | 27.78° C | 25% | 1012.8 hPa | 0 mm | - | 283 W/m² | - |
| 1777823057 | 28.33° C | 25% | 1012.8 hPa | 0 mm | - | 316 W/m² | - |
| 1777822757 | 27.78° C | 26% | 1012.9 hPa | 0 mm | - | 332 W/m² | - |
| 1777822458 | 27.78° C | 26% | 1012.9 hPa | 0 mm | - | 376 W/m² | - |
| 1777822157 | 27.78° C | 26% | 1013 hPa | 0 mm | - | 353 W/m² | - |
| 1777821857 | 27.22° C | 26% | 1012.9 hPa | 0 mm | - | 309 W/m² | - |
| 1777821558 | 27.22° C | 26% | 1012.7 hPa | 0 mm | - | 290 W/m² | - |
| 1777821257 | 27.22° C | 27% | 1012.7 hPa | 0 mm | - | 274 W/m² | - |
| 1777820958 | 27.22° C | 27% | 1012.9 hPa | 0 mm | - | 236 W/m² | - |
| 1777820657 | 27.22° C | 27% | 1013 hPa | 0 mm | - | 227 W/m² | - |
| 1777820357 | 27.22° C | 27% | 1012.9 hPa | 0 mm | - | 209 W/m² | - |
| 1777820057 | 27.22° C | 27% | 1012.9 hPa | 0 mm | - | 186 W/m² | - |
| 1777819758 | 27.22° C | 27% | 1012.9 hPa | 0 mm | - | 176 W/m² | - |
| 1777819457 | 26.67° C | 27% | 1012.9 hPa | 0 mm | - | 156 W/m² | - |
| 1777819157 | 27.22° C | 27% | 1012.8 hPa | 0 mm | - | 160 W/m² | - |
| 1777818857 | 26.67° C | 27% | 1012.9 hPa | 0 mm | - | 155 W/m² | - |
* Rain latest hour (hover to see other rain measurements)
** Current wind speed in m/s (hover to see current wind gust speed)